Time,TemperatureF,DewpointF,PressureIn,WindDirection,WindDirectionDegrees,WindSpeedMPH,WindSpeedGustMPH,Humidity,HourlyPrecipIn,Conditions,Clouds,dailyrainin,SoftwareType,DateUTC
2013-08-02 00:05:00,69.0,65.6,29.77,West,270,2.0,4.0,89,-0.66,,,0.00,Weather View 32 v70,2013-08-02 04:05:00,
2013-08-02 00:10:00,69.0,65.6,29.77,WNW,292,2.0,4.0,89,-0.66,,,0.00,Weather View 32 v70,2013-08-02 04:10:00,
2013-08-02 00:15:00,69.0,65.6,29.77,West,270,1.0,4.0,89,-0.66,,,0.00,Weather View 32 v70,2013-08-02 04:15:00,
2013-08-02 00:20:00,69.0,65.6,29.76,North,0,0.0,3.0,89,-0.66,,,0.00,Weather View 32 v70,2013-08-02 04:20:00,
2013-08-02 00:30:00,68.0,64.6,29.76,West,270,1.0,3.0,89,-0.66,,,0.00,Weather View 32 v70,2013-08-02 04:30:00,
2013-08-02 00:35:00,69.0,65.6,29.76,West,270,3.0,3.0,89,-0.66,,,0.00,Weather View 32 v70,2013-08-02 04:35:00,
2013-08-02 00:40:00,68.0,64.6,29.76,WNW,292,3.0,5.0,89,-0.66,,,0.00,Weather View 32 v70,2013-08-02 04:40:00,
2013-08-02 00:50:00,68.0,64.6,29.77,WNW,292,3.0,5.0,89,-0.66,,,0.00,Weather View 32 v70,2013-08-02 04:50:00,
2013-08-02 01:00:00,68.0,64.6,29.76,NW,315,1.0,5.0,89,0.00,,,0.00,Weather View 32 v70,2013-08-02 05:00:00,
2013-08-02 01:10:00,68.0,64.6,29.76,WSW,248,1.0,5.0,89,0.00,,,0.00,Weather View 32 v70,2013-08-02 05:10:00,
2013-08-02 01:15:00,68.0,64.6,29.76,WNW,292,2.0,5.0,89,0.00,,,0.00,Weather View 32 v70,2013-08-02 05:15:00,
2013-08-02 01:20:00,68.0,64.6,29.76,North,0,0.0,5.0,89,0.00,,,0.00,Weather View 32 v70,2013-08-02 05:20:00,
2013-08-02 01:25:00,68.0,64.6,29.76,WNW,292,2.0,5.0,89,0.00,,,0.00,Weather View 32 v70,2013-08-02 05:25:00,
2013-08-02 01:30:00,68.0,64.6,29.76,NNW,338,0.0,5.0,89,0.00,,,0.00,Weather View 32 v70,2013-08-02 05:30:00,
2013-08-02 01:35:00,68.0,64.6,29.76,South,180,1.0,5.0,89,0.00,,,0.00,Weather View 32 v70,2013-08-02 05:35:00,
2013-08-02 01:40:00,68.0,64.6,29.76,West,270,1.0,5.0,89,0.00,,,0.00,Weather View 32 v70,2013-08-02 05:40:00,
2013-08-02 01:45:00,68.0,64.6,29.75,West,270,1.0,5.0,89,0.00,,,0.00,Weather View 32 v70,2013-08-02 05:45:00,
2013-08-02 01:50:00,68.0,64.6,29.75,SW,225,3.0,5.0,89,0.00,,,0.00,Weather View 32 v70,2013-08-02 05:50:00,
2013-08-02 02:00:00,68.0,64.6,29.75,South,180,3.0,6.0,89,0.00,,,0.00,Weather View 32 v70,2013-08-02 06:00:00,
2013-08-02 02:05:00,68.0,64.6,29.75,East,90,1.0,6.0,89,0.00,,,0.00,Weather View 32 v70,2013-08-02 06:05:00,
2013-08-02 02:10:00,68.0,64.6,29.74,SSW,202,1.0,6.0,89,0.00,,,0.00,Weather View 32 v70,2013-08-02 06:10:00,
2013-08-02 02:15:00,68.0,64.6,29.74,ESE,112,1.0,6.0,89,0.00,,,0.00,Weather View 32 v70,2013-08-02 06:15:00,
2013-08-02 02:20:00,68.0,64.9,29.74,SSW,202,5.0,6.0,90,0.00,,,0.00,Weather View 32 v70,2013-08-02 06:20:00,
2013-08-02 02:30:00,68.0,64.9,29.74,SSE,158,3.0,6.0,90,0.00,,,0.00,Weather View 32 v70,2013-08-02 06:30:00,
2013-08-02 02:35:00,68.0,64.9,29.73,West,270,1.0,6.0,90,0.00,,,0.00,Weather View 32 v70,2013-08-02 06:35:00,
2013-08-02 02:40:00,68.0,64.9,29.73,SSW,202,2.0,6.0,90,0.00,,,0.00,Weather View 32 v70,2013-08-02 06:40:00,
2013-08-02 02:45:00,68.0,64.9,29.73,SE,135,2.0,6.0,90,0.00,,,0.00,Weather View 32 v70,2013-08-02 06:45:00,
2013-08-02 02:50:00,67.0,64.0,29.73,SE,135,2.0,6.0,90,0.00,,,0.00,Weather View 32 v70,2013-08-02 06:50:00,
2013-08-02 02:55:00,67.0,64.0,29.74,ESE,112,3.0,6.0,90,0.00,,,0.00,Weather View 32 v70,2013-08-02 06:55:00,
2013-08-02 03:00:00,67.0,64.0,29.73,SE,135,1.0,5.0,90,0.00,,,0.00,Weather View 32 v70,2013-08-02 07:00:00,
2013-08-02 03:05:00,67.0,64.0,29.73,North,0,0.0,5.0,90,0.00,,,0.00,Weather View 32 v70,2013-08-02 07:05:00,
2013-08-02 03:10:00,67.0,64.0,29.73,SSW,202,3.0,5.0,90,0.00,,,0.00,Weather View 32 v70,2013-08-02 07:10:00,
2013-08-02 03:15:00,67.0,64.0,29.73,South,180,1.0,5.0,90,0.00,,,0.00,Weather View 32 v70,2013-08-02 07:15:00,
2013-08-02 03:20:00,67.0,64.3,29.74,East,90,1.0,5.0,91,0.00,,,0.00,Weather View 32 v70,2013-08-02 07:20:00,
2013-08-02 03:25:00,67.0,64.3,29.74,SE,135,1.0,5.0,91,0.00,,,0.00,Weather View 32 v70,2013-08-02 07:25:00,
2013-08-02 03:30:00,67.0,64.3,29.74,East,90,1.0,5.0,91,0.00,,,0.00,Weather View 32 v70,2013-08-02 07:30:00,
2013-08-02 03:35:00,67.0,64.3,29.74,ESE,112,1.0,3.0,91,0.00,,,0.00,Weather View 32 v70,2013-08-02 07:35:00,
2013-08-02 03:40:00,66.0,63.3,29.74,ENE,68,0.0,3.0,91,0.00,,,0.00,Weather View 32 v70,2013-08-02 07:40:00,
2013-08-02 03:45:00,66.0,63.3,29.74,South,180,1.0,3.0,91,0.00,,,0.00,Weather View 32 v70,2013-08-02 07:45:00,
2013-08-02 03:50:00,66.0,63.6,29.74,SSW,202,3.0,4.0,92,0.00,,,0.00,Weather View 32 v70,2013-08-02 07:50:00,
2013-08-02 03:55:00,66.0,63.6,29.74,West,270,2.0,4.0,92,0.00,,,0.00,Weather View 32 v70,2013-08-02 07:55:00,
2013-08-02 04:00:00,66.0,63.6,29.74,WSW,248,3.0,4.0,92,0.00,,,0.00,Weather View 32 v70,2013-08-02 08:00:00,
2013-08-02 04:05:00,66.0,63.6,29.74,SW,225,3.0,4.0,92,0.00,,,0.00,Weather View 32 v70,2013-08-02 08:05:00,
2013-08-02 04:10:00,66.0,63.6,29.74,WSW,248,2.0,4.0,92,0.00,,,0.00,Weather View 32 v70,2013-08-02 08:10:00,
2013-08-02 04:15:00,66.0,63.6,29.74,West,270,2.0,5.0,92,0.00,,,0.00,Weather View 32 v70,2013-08-02 08:15:00,
2013-08-02 04:20:00,65.0,62.6,29.74,WSW,248,1.0,5.0,92,0.00,,,0.00,Weather View 32 v70,2013-08-02 08:20:00,
2013-08-02 04:25:00,65.0,62.6,29.74,South,180,2.0,5.0,92,0.00,,,0.00,Weather View 32 v70,2013-08-02 08:25:00,
2013-08-02 04:30:00,65.0,62.6,29.75,SSW,202,1.0,5.0,92,0.00,,,0.00,Weather View 32 v70,2013-08-02 08:30:00,
2013-08-02 04:35:00,65.0,62.9,29.75,SW,225,1.0,5.0,93,0.00,,,0.00,Weather View 32 v70,2013-08-02 08:35:00,
2013-08-02 04:45:00,65.0,62.9,29.75,NNE,22,0.0,5.0,93,0.00,,,0.00,Weather View 32 v70,2013-08-02 08:45:00,
2013-08-02 04:50:00,65.0,62.9,29.75,SSW,202,1.0,5.0,93,0.00,,,0.00,Weather View 32 v70,2013-08-02 08:50:00,
2013-08-02 04:55:00,65.0,62.9,29.76,ESE,112,1.0,5.0,93,0.00,,,0.00,Weather View 32 v70,2013-08-02 08:55:00,
2013-08-02 05:00:00,64.0,61.9,29.76,East,90,1.0,5.0,93,0.00,,,0.00,Weather View 32 v70,2013-08-02 09:00:00,
2013-08-02 05:05:00,64.0,62.2,29.76,East,90,1.0,5.0,94,0.00,,,0.00,Weather View 32 v70,2013-08-02 09:05:00,
2013-08-02 05:10:00,64.0,62.2,29.77,NNE,22,1.0,5.0,94,0.00,,,0.00,Weather View 32 v70,2013-08-02 09:10:00,
2013-08-02 05:15:00,64.0,62.2,29.77,North,0,0.0,4.0,94,0.00,,,0.00,Weather View 32 v70,2013-08-02 09:15:00,
2013-08-02 05:20:00,64.0,62.2,29.77,WSW,248,1.0,3.0,94,0.00,,,0.00,Weather View 32 v70,2013-08-02 09:20:00,
2013-08-02 05:25:00,64.0,62.2,29.77,SW,225,1.0,3.0,94,0.00,,,0.00,Weather View 32 v70,2013-08-02 09:25:00,
2013-08-02 05:30:00,64.0,62.2,29.77,NNE,22,0.0,3.0,94,0.00,,,0.00,Weather View 32 v70,2013-08-02 09:30:00,
2013-08-02 05:40:00,64.0,62.5,29.78,NNE,22,0.0,3.0,95,0.00,,,0.00,Weather View 32 v70,2013-08-02 09:40:00,
2013-08-02 05:45:00,64.0,62.5,29.78,NNE,22,0.0,3.0,95,0.00,,,0.00,Weather View 32 v70,2013-08-02 09:45:00,
2013-08-02 05:50:00,63.0,61.5,29.78,NNE,22,0.0,3.0,95,0.00,,,0.00,Weather View 32 v70,2013-08-02 09:50:00,
2013-08-02 05:55:00,63.0,61.8,29.78,East,90,1.0,2.0,96,0.00,,,0.00,Weather View 32 v70,2013-08-02 09:55:00,
2013-08-02 06:00:00,63.0,61.8,29.79,NNE,22,0.0,2.0,96,0.01,,,0.01,Weather View 32 v70,2013-08-02 10:00:00,
2013-08-02 06:05:00,62.0,60.8,29.79,NE,45,0.0,2.0,96,0.01,,,0.01,Weather View 32 v70,2013-08-02 10:05:00,
2013-08-02 06:10:00,63.0,61.8,29.79,ENE,68,1.0,2.0,96,0.01,,,0.01,Weather View 32 v70,2013-08-02 10:10:00,
2013-08-02 06:15:00,63.0,61.8,29.79,NNE,22,0.0,2.0,96,0.01,,,0.01,Weather View 32 v70,2013-08-02 10:15:00,
2013-08-02 06:20:00,63.0,61.8,29.79,NNE,22,0.0,2.0,96,0.01,,,0.01,Weather View 32 v70,2013-08-02 10:20:00,
2013-08-02 06:25:00,63.0,61.8,29.79,NNE,22,0.0,2.0,96,0.01,,,0.01,Weather View 32 v70,2013-08-02 10:25:00,
2013-08-02 06:30:00,64.0,62.5,29.80,NNE,22,0.0,2.0,95,0.01,,,0.01,Weather View 32 v70,2013-08-02 10:30:00,
2013-08-02 06:35:00,64.0,62.5,29.80,NNE,22,0.0,2.0,95,0.01,,,0.01,Weather View 32 v70,2013-08-02 10:35:00,
2013-08-02 06:40:00,64.0,62.5,29.80,NE,45,1.0,2.0,95,0.01,,,0.01,Weather View 32 v70,2013-08-02 10:40:00,
2013-08-02 06:45:00,64.0,62.5,29.80,NNE,22,0.0,2.0,95,0.01,,,0.01,Weather View 32 v70,2013-08-02 10:45:00,
2013-08-02 06:50:00,64.0,62.5,29.80,NE,45,1.0,2.0,95,0.01,,,0.01,Weather View 32 v70,2013-08-02 10:50:00,
2013-08-02 06:55:00,65.0,63.5,29.80,NNE,22,0.0,2.0,95,0.01,,,0.01,Weather View 32 v70,2013-08-02 10:55:00,
2013-08-02 07:00:00,65.0,63.2,29.80,NNE,22,0.0,1.0,94,0.00,,,0.01,Weather View 32 v70,2013-08-02 11:00:00,
2013-08-02 07:10:00,66.0,63.9,29.80,NNE,22,0.0,1.0,93,0.00,,,0.01,Weather View 32 v70,2013-08-02 11:10:00,
2013-08-02 07:20:00,66.0,64.2,29.81,ENE,68,1.0,1.0,94,0.00,,,0.01,Weather View 32 v70,2013-08-02 11:20:00,
2013-08-02 07:25:00,67.0,64.9,29.81,NNE,22,0.0,1.0,93,0.00,,,0.01,Weather View 32 v70,2013-08-02 11:25:00,
2013-08-02 07:30:00,67.0,64.9,29.81,NNE,22,0.0,1.0,93,0.00,,,0.01,Weather View 32 v70,2013-08-02 11:30:00,
2013-08-02 07:35:00,67.0,64.9,29.81,NNE,22,0.0,1.0,93,0.00,,,0.01,Weather View 32 v70,2013-08-02 11:35:00,
2013-08-02 07:40:00,68.0,65.6,29.81,North,0,0.0,1.0,92,0.00,,,0.01,Weather View 32 v70,2013-08-02 11:40:00,
2013-08-02 07:45:00,69.0,66.6,29.81,NNW,338,0.0,1.0,92,0.00,,,0.01,Weather View 32 v70,2013-08-02 11:45:00,
2013-08-02 07:50:00,68.0,65.9,29.81,East,90,1.0,2.0,93,0.00,,,0.01,Weather View 32 v70,2013-08-02 11:50:00,
2013-08-02 07:55:00,69.0,66.9,29.81,SSW,202,0.0,2.0,93,0.00,,,0.01,Weather View 32 v70,2013-08-02 11:55:00,
2013-08-02 08:00:00,69.0,66.9,29.81,SE,135,1.0,2.0,93,0.00,,,0.01,Weather View 32 v70,2013-08-02 12:00:00,
2013-08-02 08:05:00,68.0,66.2,29.82,WSW,248,1.0,3.0,94,0.00,,,0.01,Weather View 32 v70,2013-08-02 12:05:00,
2013-08-02 08:10:00,68.0,66.5,29.82,SSW,202,2.0,5.0,95,0.00,,,0.01,Weather View 32 v70,2013-08-02 12:10:00,
2013-08-02 08:15:00,69.0,67.2,29.82,SSW,202,1.0,5.0,94,0.00,,,0.01,Weather View 32 v70,2013-08-02 12:15:00,
2013-08-02 08:20:00,69.0,67.2,29.82,South,180,3.0,5.0,94,0.00,,,0.01,Weather View 32 v70,2013-08-02 12:20:00,
2013-08-02 08:25:00,70.0,68.2,29.82,NNE,22,1.0,5.0,94,0.00,,,0.01,Weather View 32 v70,2013-08-02 12:25:00,
2013-08-02 08:30:00,69.0,67.5,29.82,WSW,248,3.0,5.0,95,0.00,,,0.01,Weather View 32 v70,2013-08-02 12:30:00,
2013-08-02 08:35:00,70.0,68.5,29.83,SW,225,3.0,5.0,95,0.00,,,0.01,Weather View 32 v70,2013-08-02 12:35:00,
2013-08-02 08:40:00,71.0,69.5,29.83,SSW,202,4.0,5.0,95,0.00,,,0.01,Weather View 32 v70,2013-08-02 12:40:00,
2013-08-02 08:45:00,71.0,69.8,29.83,SW,225,2.0,5.0,96,0.00,,,0.01,Weather View 32 v70,2013-08-02 12:45:00,
2013-08-02 08:50:00,72.0,71.4,29.83,NNW,338,2.0,5.0,98,0.00,,,0.01,Weather View 32 v70,2013-08-02 12:50:00,
2013-08-02 08:55:00,72.0,71.7,29.83,WNW,292,3.0,5.0,99,0.00,,,0.01,Weather View 32 v70,2013-08-02 12:55:00,
2013-08-02 09:05:00,73.0,73.0,29.83,West,270,1.0,5.0,100,0.00,,,0.01,Weather View 32 v70,2013-08-02 13:05:00,
2013-08-02 09:10:00,73.0,73.0,29.83,NW,315,1.0,5.0,100,0.00,,,0.01,Weather View 32 v70,2013-08-02 13:10:00,
2013-08-02 09:15:00,74.0,74.0,29.83,SW,225,1.0,5.0,100,0.00,,,0.01,Weather View 32 v70,2013-08-02 13:15:00,
2013-08-02 09:20:00,75.0,75.0,29.83,NNE,22,1.0,5.0,100,0.00,,,0.01,Weather View 32 v70,2013-08-02 13:20:00,
2013-08-02 09:25:00,76.0,75.4,29.83,ESE,112,2.0,5.0,98,0.00,,,0.01,Weather View 32 v70,2013-08-02 13:25:00,
2013-08-02 09:30:00,76.0,74.5,29.83,WSW,248,3.0,5.0,95,0.00,,,0.01,Weather View 32 v70,2013-08-02 13:30:00,
2013-08-02 09:35:00,76.0,73.2,29.83,WSW,248,2.0,5.0,91,0.00,,,0.01,Weather View 32 v70,2013-08-02 13:35:00,
2013-08-02 09:45:00,75.0,69.8,29.83,SW,225,7.0,7.0,84,0.00,,,0.01,Weather View 32 v70,2013-08-02 13:45:00,
2013-08-02 09:50:00,75.0,69.1,29.83,SW,225,3.0,7.0,82,0.00,,,0.01,Weather View 32 v70,2013-08-02 13:50:00,
2013-08-02 09:55:00,75.0,68.7,29.84,North,0,1.0,7.0,81,0.00,,,0.01,Weather View 32 v70,2013-08-02 13:55:00,
2013-08-02 10:05:00,77.0,70.7,29.84,NE,45,1.0,7.0,81,0.00,,,0.01,Weather View 32 v70,2013-08-02 14:05:00,
2013-08-02 10:10:00,77.0,70.0,29.84,NW,315,2.0,7.0,79,0.00,,,0.01,Weather View 32 v70,2013-08-02 14:10:00,
2013-08-02 10:15:00,77.0,69.2,29.84,WNW,292,1.0,7.0,77,0.00,,,0.01,Weather View 32 v70,2013-08-02 14:15:00,
2013-08-02 10:20:00,77.0,69.2,29.84,West,270,2.0,7.0,77,0.00,,,0.01,Weather View 32 v70,2013-08-02 14:20:00,
2013-08-02 10:25:00,76.0,68.2,29.84,WSW,248,4.0,7.0,77,0.00,,,0.01,Weather View 32 v70,2013-08-02 14:25:00,
2013-08-02 10:30:00,76.0,68.2,29.84,SSW,202,3.0,7.0,77,0.00,,,0.01,Weather View 32 v70,2013-08-02 14:30:00,
2013-08-02 10:35:00,77.0,68.8,29.84,SE,135,0.0,7.0,76,0.00,,,0.01,Weather View 32 v70,2013-08-02 14:35:00,
2013-08-02 10:40:00,78.0,69.0,29.84,SSE,158,3.0,7.0,74,0.00,,,0.01,Weather View 32 v70,2013-08-02 14:40:00,
2013-08-02 10:45:00,78.0,68.6,29.84,South,180,1.0,7.0,73,0.00,,,0.01,Weather View 32 v70,2013-08-02 14:45:00,
2013-08-02 10:50:00,78.0,68.6,29.84,South,180,3.0,7.0,73,0.00,,,0.01,Weather View 32 v70,2013-08-02 14:50:00,
2013-08-02 10:56:00,78.0,67.8,29.84,SSW,202,3.0,8.0,71,0.00,,,0.01,Weather View 32 v70,2013-08-02 14:56:00,
2013-08-02 11:05:00,78.0,67.0,29.84,SSW,202,4.0,9.0,69,0.00,,,0.01,Weather View 32 v70,2013-08-02 15:05:00,
2013-08-02 11:10:00,78.0,67.4,29.84,SW,225,8.0,10.0,70,0.00,,,0.01,Weather View 32 v70,2013-08-02 15:10:00,
2013-08-02 11:15:00,78.0,67.0,29.84,SSW,202,5.0,10.0,69,0.00,,,0.01,Weather View 32 v70,2013-08-02 15:15:00,
2013-08-02 11:20:00,78.0,67.0,29.84,SSW,202,5.0,10.0,69,0.00,,,0.01,Weather View 32 v70,2013-08-02 15:20:00,
2013-08-02 11:25:00,78.0,67.0,29.84,South,180,7.0,11.0,69,0.00,,,0.01,Weather View 32 v70,2013-08-02 15:25:00,
2013-08-02 11:30:00,78.0,66.1,29.84,SE,135,3.0,11.0,67,0.00,,,0.01,Weather View 32 v70,2013-08-02 15:30:00,
2013-08-02 11:35:00,79.0,67.1,29.84,South,180,3.0,11.0,67,0.00,,,0.01,Weather View 32 v70,2013-08-02 15:35:00,
2013-08-02 11:40:00,79.0,66.2,29.84,SSE,158,5.0,11.0,65,0.00,,,0.01,Weather View 32 v70,2013-08-02 15:40:00,
2013-08-02 11:45:00,79.0,65.3,29.84,SW,225,6.0,11.0,63,0.00,,,0.01,Weather View 32 v70,2013-08-02 15:45:00,
2013-08-02 11:50:00,79.0,65.3,29.84,SSW,202,5.0,11.0,63,0.00,,,0.01,Weather View 32 v70,2013-08-02 15:50:00,
2013-08-02 11:55:00,79.0,66.2,29.84,SW,225,3.0,11.0,65,0.00,,,0.01,Weather View 32 v70,2013-08-02 15:55:00,
2013-08-02 12:00:00,79.0,66.6,29.84,South,180,5.0,11.0,66,0.00,,,0.01,Weather View 32 v70,2013-08-02 16:00:00,
2013-08-02 12:10:00,80.0,66.2,29.84,SW,225,4.0,11.0,63,0.00,,,0.01,Weather View 32 v70,2013-08-02 16:10:00,
2013-08-02 12:20:00,80.0,66.7,29.85,SSE,158,5.0,11.0,64,0.00,,,0.01,Weather View 32 v70,2013-08-02 16:20:00,
2013-08-02 12:30:00,80.0,66.2,29.84,ESE,112,7.0,10.0,63,0.00,,,0.01,Weather View 32 v70,2013-08-02 16:30:00,
2013-08-02 12:35:00,80.0,65.8,29.83,NNE,22,1.0,10.0,62,0.00,,,0.01,Weather View 32 v70,2013-08-02 16:35:00,
2013-08-02 12:40:00,81.0,65.3,29.83,South,180,4.0,10.0,59,0.00,,,0.01,Weather View 32 v70,2013-08-02 16:40:00,
2013-08-02 12:45:00,81.0,65.8,29.83,ESE,112,3.0,10.0,60,0.00,,,0.01,Weather View 32 v70,2013-08-02 16:45:00,
2013-08-02 12:50:00,81.0,65.8,29.83,SE,135,6.0,10.0,60,0.00,,,0.01,Weather View 32 v70,2013-08-02 16:50:00,
2013-08-02 12:55:00,82.0,66.2,29.83,SSE,158,8.0,14.0,59,0.00,,,0.01,Weather View 32 v70,2013-08-02 16:55:00,
2013-08-02 13:00:00,82.0,65.2,29.83,SE,135,9.0,14.0,57,0.00,,,0.01,Weather View 32 v70,2013-08-02 17:00:00,
2013-08-02 13:10:00,82.0,65.7,29.82,SW,225,1.0,14.0,58,0.00,,,0.01,Weather View 32 v70,2013-08-02 17:10:00,
2013-08-02 13:15:00,82.0,65.2,29.82,ESE,112,3.0,14.0,57,0.00,,,0.01,Weather View 32 v70,2013-08-02 17:15:00,
2013-08-02 13:20:00,83.0,66.1,29.82,ENE,68,2.0,14.0,57,0.00,,,0.01,Weather View 32 v70,2013-08-02 17:20:00,
2013-08-02 13:25:00,82.0,64.2,29.82,ESE,112,8.0,14.0,55,0.00,,,0.01,Weather View 32 v70,2013-08-02 17:25:00,
2013-08-02 13:30:00,82.0,64.7,29.82,SSE,158,8.0,14.0,56,0.00,,,0.01,Weather View 32 v70,2013-08-02 17:30:00,
2013-08-02 13:40:00,83.0,65.1,29.82,South,180,3.0,14.0,55,0.00,,,0.01,Weather View 32 v70,2013-08-02 17:40:00,
2013-08-02 13:50:00,83.0,64.6,29.82,South,180,11.0,15.0,54,0.00,,,0.01,Weather View 32 v70,2013-08-02 17:50:00,
2013-08-02 13:55:00,82.0,64.2,29.82,ESE,112,5.0,15.0,55,0.00,,,0.01,Weather View 32 v70,2013-08-02 17:55:00,
2013-08-02 14:00:00,83.0,64.6,29.82,SE,135,6.0,15.0,54,0.00,,,0.01,Weather View 32 v70,2013-08-02 18:00:00,
2013-08-02 14:05:00,83.0,64.0,29.82,ESE,112,5.0,15.0,53,0.00,,,0.01,Weather View 32 v70,2013-08-02 18:05:00,
2013-08-02 14:10:00,83.0,61.8,29.82,ESE,112,10.0,15.0,49,0.00,,,0.01,Weather View 32 v70,2013-08-02 18:10:00,
2013-08-02 14:15:00,84.0,64.4,29.82,SW,225,6.0,15.0,52,0.00,,,0.01,Weather View 32 v70,2013-08-02 18:15:00,
2013-08-02 14:20:00,84.0,62.7,29.82,SSE,158,6.0,15.0,49,0.00,,,0.01,Weather View 32 v70,2013-08-02 18:20:00,
2013-08-02 14:25:00,83.0,61.2,29.81,ESE,112,13.0,23.0,48,0.00,,,0.01,Weather View 32 v70,2013-08-02 18:25:00,
2013-08-02 14:30:00,84.0,63.9,29.82,East,90,4.0,23.0,51,0.00,,,0.01,Weather View 32 v70,2013-08-02 18:30:00,
2013-08-02 14:35:00,84.0,62.7,29.82,SSE,158,9.0,23.0,49,0.00,,,0.01,Weather View 32 v70,2013-08-02 18:35:00,
2013-08-02 14:45:00,84.0,63.9,29.81,South,180,5.0,23.0,51,0.00,,,0.01,Weather View 32 v70,2013-08-02 18:45:00,
2013-08-02 14:50:00,84.0,63.9,29.81,South,180,5.0,23.0,51,0.00,,,0.01,Weather View 32 v70,2013-08-02 18:50:00,
2013-08-02 14:55:00,84.0,65.5,29.82,South,180,7.0,23.0,54,0.00,,,0.01,Weather View 32 v70,2013-08-02 18:55:00,
2013-08-02 15:00:00,84.0,63.3,29.82,SSW,202,5.0,23.0,50,0.00,,,0.01,Weather View 32 v70,2013-08-02 19:00:00,
2013-08-02 15:05:00,84.0,63.3,29.82,ESE,112,4.0,23.0,50,0.00,,,0.01,Weather View 32 v70,2013-08-02 19:05:00,
2013-08-02 15:10:00,84.0,62.1,29.81,SSE,158,9.0,23.0,48,0.00,,,0.01,Weather View 32 v70,2013-08-02 19:10:00,
2013-08-02 15:20:00,84.0,62.7,29.81,SW,225,13.0,23.0,49,0.00,,,0.01,Weather View 32 v70,2013-08-02 19:20:00,
2013-08-02 15:25:00,84.0,62.7,29.82,SSE,158,11.0,15.0,49,0.00,,,0.01,Weather View 32 v70,2013-08-02 19:25:00,
2013-08-02 15:30:00,84.0,62.7,29.81,SE,135,6.0,15.0,49,0.00,,,0.01,Weather View 32 v70,2013-08-02 19:30:00,
2013-08-02 15:35:00,84.0,62.7,29.81,SSE,158,9.0,15.0,49,0.00,,,0.01,Weather View 32 v70,2013-08-02 19:35:00,
2013-08-02 15:40:00,83.0,62.9,29.81,SE,135,10.0,15.0,51,0.00,,,0.01,Weather View 32 v70,2013-08-02 19:40:00,
2013-08-02 15:50:00,83.0,62.4,29.81,SE,135,11.0,15.0,50,0.00,,,0.01,Weather View 32 v70,2013-08-02 19:50:00,
2013-08-02 15:55:00,84.0,63.3,29.82,SSE,158,9.0,17.0,50,0.00,,,0.01,Weather View 32 v70,2013-08-02 19:55:00,
2013-08-02 16:00:00,84.0,62.7,29.81,SSE,158,10.0,17.0,49,0.00,,,0.01,Weather View 32 v70,2013-08-02 20:00:00,
2013-08-02 16:10:00,84.0,62.1,29.81,SSE,158,12.0,18.0,48,0.00,,,0.01,Weather View 32 v70,2013-08-02 20:10:00,
2013-08-02 16:20:00,84.0,63.3,29.81,SE,135,4.0,19.0,50,0.00,,,0.01,Weather View 32 v70,2013-08-02 20:20:00,
2013-08-02 16:25:00,83.0,61.8,29.82,South,180,6.0,19.0,49,0.00,,,0.01,Weather View 32 v70,2013-08-02 20:25:00,
2013-08-02 16:30:00,83.0,62.4,29.81,South,180,7.0,19.0,50,0.00,,,0.01,Weather View 32 v70,2013-08-02 20:30:00,
2013-08-02 16:35:00,83.0,62.4,29.82,SSE,158,11.0,19.0,50,0.00,,,0.01,Weather View 32 v70,2013-08-02 20:35:00,
2013-08-02 16:45:00,84.0,63.3,29.81,ESE,112,6.0,19.0,50,0.00,,,0.01,Weather View 32 v70,2013-08-02 20:45:00,
2013-08-02 16:55:00,84.0,64.4,29.81,SE,135,8.0,19.0,52,0.00,,,0.01,Weather View 32 v70,2013-08-02 20:55:00,
2013-08-02 17:00:00,83.0,62.9,29.81,ESE,112,6.0,19.0,51,0.00,,,0.01,Weather View 32 v70,2013-08-02 21:00:00,
2013-08-02 17:05:00,82.0,62.6,29.81,SSE,158,10.0,19.0,52,0.00,,,0.01,Weather View 32 v70,2013-08-02 21:05:00,
2013-08-02 17:10:00,82.0,63.1,29.81,ESE,112,5.0,19.0,53,0.00,,,0.01,Weather View 32 v70,2013-08-02 21:10:00,
2013-08-02 17:20:00,82.0,63.7,29.82,SE,135,5.0,16.0,54,0.00,,,0.01,Weather View 32 v70,2013-08-02 21:20:00,
2013-08-02 17:25:00,82.0,64.2,29.82,SW,225,2.0,16.0,55,0.00,,,0.01,Weather View 32 v70,2013-08-02 21:25:00,
2013-08-02 17:30:00,82.0,64.7,29.82,South,180,5.0,16.0,56,0.00,,,0.01,Weather View 32 v70,2013-08-02 21:30:00,
2013-08-02 17:40:00,82.0,64.7,29.82,South,180,13.0,16.0,56,0.00,,,0.01,Weather View 32 v70,2013-08-02 21:40:00,
2013-08-02 17:50:00,82.0,65.2,29.81,SE,135,6.0,16.0,57,0.00,,,0.01,Weather View 32 v70,2013-08-02 21:50:00,
2013-08-02 17:55:00,82.0,65.2,29.81,ESE,112,7.0,16.0,57,0.00,,,0.01,Weather View 32 v70,2013-08-02 21:55:00,
2013-08-02 18:05:00,82.0,66.2,29.79,SE,135,7.0,14.0,59,0.00,,,0.01,Weather View 32 v70,2013-08-02 22:05:00,
2013-08-02 18:10:00,82.0,66.2,29.79,ESE,112,4.0,14.0,59,0.00,,,0.01,Weather View 32 v70,2013-08-02 22:10:00,
2013-08-02 18:15:00,82.0,66.7,29.78,ESE,112,4.0,14.0,60,0.00,,,0.01,Weather View 32 v70,2013-08-02 22:15:00,
2013-08-02 18:25:00,81.0,65.8,29.78,SSE,158,3.0,14.0,60,0.00,,,0.01,Weather View 32 v70,2013-08-02 22:25:00,
2013-08-02 18:30:00,81.0,66.2,29.79,ESE,112,6.0,14.0,61,0.00,,,0.01,Weather View 32 v70,2013-08-02 22:30:00,
2013-08-02 18:35:00,81.0,66.7,29.78,SE,135,3.0,14.0,62,0.00,,,0.01,Weather View 32 v70,2013-08-02 22:35:00,
2013-08-02 18:40:00,81.0,66.2,29.79,SSE,158,6.0,14.0,61,0.00,,,0.01,Weather View 32 v70,2013-08-02 22:40:00,
2013-08-02 18:50:00,81.0,67.2,29.79,ESE,112,3.0,11.0,63,0.00,,,0.01,Weather View 32 v70,2013-08-02 22:50:00,
2013-08-02 18:55:00,81.0,66.7,29.79,SE,135,4.0,10.0,62,0.00,,,0.01,Weather View 32 v70,2013-08-02 22:55:00,
2013-08-02 19:00:00,81.0,67.2,29.79,East,90,4.0,10.0,63,0.00,,,0.01,Weather View 32 v70,2013-08-02 23:00:00,
2013-08-02 19:10:00,81.0,67.2,29.80,SE,135,4.0,10.0,63,0.00,,,0.01,Weather View 32 v70,2013-08-02 23:10:00,
2013-08-02 19:15:00,81.0,67.6,29.80,SSE,158,3.0,10.0,64,0.00,,,0.01,Weather View 32 v70,2013-08-02 23:15:00,
2013-08-02 19:20:00,81.0,67.6,29.80,South,180,1.0,10.0,64,0.00,,,0.01,Weather View 32 v70,2013-08-02 23:20:00,
2013-08-02 19:25:00,81.0,67.2,29.81,SSE,158,3.0,10.0,63,0.00,,,0.01,Weather View 32 v70,2013-08-02 23:25:00,
2013-08-02 19:30:00,81.0,67.6,29.81,SSE,158,2.0,10.0,64,0.00,,,0.01,Weather View 32 v70,2013-08-02 23:30:00,
2013-08-02 19:40:00,80.0,67.1,29.81,SE,135,3.0,10.0,65,0.00,,,0.01,Weather View 32 v70,2013-08-02 23:40:00,
2013-08-02 19:45:00,80.0,67.6,29.81,SSE,158,3.0,10.0,66,0.00,,,0.01,Weather View 32 v70,2013-08-02 23:45:00,
2013-08-02 19:50:00,80.0,68.0,29.81,SE,135,1.0,10.0,67,0.00,,,0.01,Weather View 32 v70,2013-08-02 23:50:00,
2013-08-02 19:55:00,79.0,67.5,29.81,ESE,112,2.0,7.0,68,0.00,,,0.01,Weather View 32 v70,2013-08-02 23:55:00,
2013-08-02 20:00:00,79.0,67.5,29.81,South,180,2.0,7.0,68,0.00,,,0.01,Weather View 32 v70,2013-08-03 00:00:00,
2013-08-02 20:05:00,79.0,67.9,29.81,SE,135,2.0,6.0,69,0.00,,,0.01,Weather View 32 v70,2013-08-03 00:05:00,
2013-08-02 20:10:00,79.0,68.3,29.82,ESE,112,3.0,6.0,70,0.00,,,0.01,Weather View 32 v70,2013-08-03 00:10:00,
2013-08-02 20:20:00,78.0,68.2,29.82,SE,135,3.0,6.0,72,0.00,,,0.01,Weather View 32 v70,2013-08-03 00:20:00,
2013-08-02 20:25:00,78.0,68.6,29.82,SE,135,3.0,6.0,73,0.00,,,0.01,Weather View 32 v70,2013-08-03 00:25:00,
2013-08-02 20:30:00,77.0,68.0,29.82,South,180,2.0,6.0,74,0.00,,,0.01,Weather View 32 v70,2013-08-03 00:30:00,
2013-08-02 20:35:00,77.0,68.0,29.83,ESE,112,1.0,6.0,74,0.00,,,0.01,Weather View 32 v70,2013-08-03 00:35:00,
2013-08-02 20:40:00,77.0,68.4,29.83,SE,135,2.0,5.0,75,0.00,,,0.01,Weather View 32 v70,2013-08-03 00:40:00,
2013-08-02 20:50:00,76.0,67.9,29.83,ESE,112,3.0,5.0,76,0.00,,,0.01,Weather View 32 v70,2013-08-03 00:50:00,
2013-08-02 20:55:00,76.0,67.5,29.83,SSE,158,3.0,6.0,75,0.00,,,0.01,Weather View 32 v70,2013-08-03 00:55:00,
2013-08-02 21:02:00,76.0,67.5,29.83,ESE,112,4.0,6.0,75,0.00,,,0.01,Weather View 32 v70,2013-08-03 01:02:00,
2013-08-02 21:10:00,76.0,67.9,29.84,SE,135,3.0,6.0,76,0.00,,,0.01,Weather View 32 v70,2013-08-03 01:10:00,
2013-08-02 21:15:00,75.0,67.3,29.84,SE,135,3.0,6.0,77,0.00,,,0.01,Weather View 32 v70,2013-08-03 01:15:00,
2013-08-02 21:20:00,75.0,67.6,29.84,SE,135,2.0,6.0,78,0.00,,,0.01,Weather View 32 v70,2013-08-03 01:20:00,
2013-08-02 21:30:00,74.0,67.4,29.84,SE,135,4.0,6.0,80,0.00,,,0.01,Weather View 32 v70,2013-08-03 01:30:00,
2013-08-02 21:40:00,74.0,67.8,29.84,SE,135,3.0,6.0,81,0.00,,,0.01,Weather View 32 v70,2013-08-03 01:40:00,
2013-08-02 21:45:00,74.0,67.8,29.84,ESE,112,3.0,6.0,81,0.00,,,0.01,Weather View 32 v70,2013-08-03 01:45:00,
2013-08-02 21:50:00,74.0,67.8,29.85,SSE,158,3.0,6.0,81,0.00,,,0.01,Weather View 32 v70,2013-08-03 01:50:00,
2013-08-02 22:00:00,74.0,67.4,29.85,SSE,158,3.0,6.0,80,0.00,,,0.01,Weather View 32 v70,2013-08-03 02:00:00,
2013-08-02 22:05:00,74.0,67.4,29.85,SSE,158,2.0,6.0,80,0.00,,,0.01,Weather View 32 v70,2013-08-03 02:05:00,
2013-08-02 22:15:00,73.0,66.4,29.85,SE,135,3.0,5.0,80,0.00,,,0.01,Weather View 32 v70,2013-08-03 02:15:00,
2013-08-02 22:25:00,73.0,67.2,29.85,ESE,112,2.0,5.0,82,0.00,,,0.01,Weather View 32 v70,2013-08-03 02:25:00,
2013-08-02 22:30:00,72.0,66.5,29.86,ESE,112,3.0,5.0,83,0.00,,,0.01,Weather View 32 v70,2013-08-03 02:30:00,
2013-08-02 22:35:00,72.0,66.5,29.85,ESE,112,2.0,5.0,83,0.00,,,0.01,Weather View 32 v70,2013-08-03 02:35:00,
2013-08-02 22:40:00,72.0,66.9,29.86,SE,135,3.0,5.0,84,0.00,,,0.01,Weather View 32 v70,2013-08-03 02:40:00,
2013-08-02 22:50:00,72.0,67.2,29.86,ESE,112,2.0,5.0,85,0.00,,,0.01,Weather View 32 v70,2013-08-03 02:50:00,
2013-08-02 22:55:00,71.0,66.2,29.86,SSE,158,3.0,5.0,85,0.00,,,0.01,Weather View 32 v70,2013-08-03 02:55:00,
2013-08-02 23:00:00,72.0,67.2,29.86,SSE,158,2.0,5.0,85,0.00,,,0.01,Weather View 32 v70,2013-08-03 03:00:00,
2013-08-02 23:10:00,71.0,66.6,29.85,SSE,158,2.0,5.0,86,0.00,,,0.01,Weather View 32 v70,2013-08-03 03:10:00,
2013-08-02 23:20:00,71.0,66.9,29.85,SSE,158,3.0,5.0,87,0.00,,,0.01,Weather View 32 v70,2013-08-03 03:20:00,
2013-08-02 23:25:00,71.0,66.9,29.85,SSE,158,3.0,5.0,87,0.00,,,0.01,Weather View 32 v70,2013-08-03 03:25:00,
2013-08-02 23:30:00,71.0,66.9,29.85,ESE,112,3.0,5.0,87,0.00,,,0.01,Weather View 32 v70,2013-08-03 03:30:00,
2013-08-02 23:40:00,70.0,66.6,29.85,ESE,112,2.0,5.0,89,0.00,,,0.01,Weather View 32 v70,2013-08-03 03:40:00,
2013-08-02 23:45:00,70.0,66.6,29.85,ESE,112,3.0,5.0,89,0.00,,,0.01,Weather View 32 v70,2013-08-03 03:45:00,
2013-08-02 23:50:00,70.0,66.9,29.85,ESE,112,2.0,5.0,90,0.00,,,0.01,Weather View 32 v70,2013-08-03 03:50:00,
2013-08-02 23:55:00,70.0,66.9,29.85,SE,135,1.0,5.0,90,0.00,,,0.01,Weather View 32 v70,2013-08-03 03:55:00,